2023/08/09 00:00:00, 8.6,25.2
2023/08/09 00:10:00, 5.4,24.8
2023/08/09 00:20:00, 2.2,24.7
2023/08/09 00:30:00, 2.5,24.3
2023/08/09 00:40:00, 2.7,24.3
2023/08/09 00:50:00, 6.1,24.2
2023/08/09 01:00:00, 9.5,24.2
2023/08/09 01:10:00, 9.9,24.0
2023/08/09 01:20:00, 8.5,24.1
2023/08/09 01:30:00, 5.9,24.0
2023/08/09 01:40:00, 6.0,24.0
2023/08/09 01:50:00, 7.3,23.9
2023/08/09 02:00:00, 6.8,23.9
2023/08/09 02:10:00, 6.8,24.0
2023/08/09 02:20:00, 5.6,23.6
2023/08/09 02:30:00, 6.1,23.8
2023/08/09 02:40:00, 5.9,23.8
2023/08/09 02:50:00, 5.8,23.5
2023/08/09 03:00:00, 5.2,23.7
2023/08/09 03:10:00, 5.5,23.7
2023/08/09 03:20:00, 6.5,23.7
2023/08/09 03:30:00, 7.4,23.5
2023/08/09 03:40:00, 6.7,23.5
2023/08/09 03:50:00, 7.2,23.3
2023/08/09 04:00:00, 6.7,23.5
2023/08/09 04:10:00, 6.0,23.5
2023/08/09 04:20:00, 6.0,23.5
2023/08/09 04:30:00, 5.3,23.5
2023/08/09 04:40:00, 5.8,23.2
2023/08/09 04:50:00, 5.3,23.5
2023/08/09 05:00:00, 3.5,23.1
2023/08/09 05:10:00, 2.9,23.2
2023/08/09 05:20:00, 2.3,23.3
2023/08/09 05:30:00, 1.8,23.3
2023/08/09 05:40:00, 0.8,23.3
2023/08/09 05:50:00, 0.9,23.6
2023/08/09 06:00:00, 0.9,23.7
2023/08/09 06:10:00, 0.8,23.9
2023/08/09 06:20:00, 0.7,24.3
2023/08/09 06:30:00, 0.7,24.8
2023/08/09 06:40:00, 0.6,25.2
2023/08/09 06:50:00, 0.8,25.9
2023/08/09 07:00:00, 1.1,26.8
2023/08/09 07:10:00, 7.4,27.6
2023/08/09 07:20:00,13.2,28.9
2023/08/09 07:30:00, 8.7,30.1
2023/08/09 07:40:00, 1.1,30.0
2023/08/09 07:50:00, 6.8,32.2
2023/08/09 08:00:00, 4.9,34.3
2023/08/09 08:10:00, 4.2,34.3
2023/08/09 08:20:00, 4.4,34.3
2023/08/09 08:30:00, 3.2,36.3
2023/08/09 08:40:00, 2.6,36.0
2023/08/09 08:50:00, 0.6,35.9
2023/08/09 09:00:00, 0.0,36.0
2023/08/09 09:10:00, 0.0,36.6
2023/08/09 09:20:00, 0.0,36.9
2023/08/09 09:30:00, 0.0,36.7
2023/08/09 09:40:00, 0.0,36.7
2023/08/09 09:50:00, 0.0,36.0
2023/08/09 10:00:00, 0.0,34.8
2023/08/09 10:10:00, 0.0,35.7
2023/08/09 10:20:00, 0.0,35.0
2023/08/09 10:30:00, 0.0,36.4
2023/08/09 10:40:00, 0.0,37.2
2023/08/09 10:50:00, 0.0,37.1
2023/08/09 11:00:00, 0.0,36.0
2023/08/09 11:10:00, 0.0,36.9
2023/08/09 11:20:00, 0.0,35.3
2023/08/09 11:30:00, 0.0,35.4
2023/08/09 11:40:00, 0.0,36.0
2023/08/09 11:50:00, 0.0,36.7
2023/08/09 12:00:00, 0.0,36.0
2023/08/09 12:10:00, 0.0,35.2
2023/08/09 12:20:00, 0.0,34.8
2023/08/09 12:30:00, 0.0,34.8
2023/08/09 12:40:00, 0.0,35.8
2023/08/09 12:50:00, 0.0,36.1
2023/08/09 13:00:00, 0.0,35.9
2023/08/09 13:10:00, 0.0,35.9
2023/08/09 13:20:00, 0.0,36.4
2023/08/09 13:30:00, 0.0,37.1
2023/08/09 13:40:00, 0.0,38.0
2023/08/09 13:50:00, 0.0,37.6
2023/08/09 14:00:00, 0.0,38.0
2023/08/09 14:10:00, 0.0,38.7
2023/08/09 14:20:00, 0.0,36.7
2023/08/09 14:30:00, 0.0,36.3
2023/08/09 14:40:00, 0.0,38.6
2023/08/09 14:50:00, 0.0,38.3
2023/08/09 15:00:00, 0.0,38.1
2023/08/09 15:10:00, 0.0,36.5
2023/08/09 15:20:00, 0.0,35.4
2023/08/09 15:30:00, 0.0,35.8
2023/08/09 15:40:00, 0.0,35.3
2023/08/09 15:50:00, 0.0,35.7
2023/08/09 16:00:00, 0.0,35.7
2023/08/09 16:10:00, 0.0,36.7
2023/08/09 16:20:00, 0.0,37.0
2023/08/09 16:30:00, 0.0,35.7
2023/08/09 16:40:00, 0.0,34.9
2023/08/09 16:50:00, 0.0,33.0
2023/08/09 17:00:00, 0.0,33.3
2023/08/09 17:10:00, 0.0,34.3
2023/08/09 17:20:00, 0.0,34.3
2023/08/09 17:30:00, 0.0,34.9
2023/08/09 17:40:00, 0.0,35.0
2023/08/09 17:50:00, 0.0,34.7
2023/08/09 18:00:00, 0.0,33.6
2023/08/09 18:10:00, 0.0,32.8
2023/08/09 18:20:00, 0.0,31.3
2023/08/09 18:30:00, 0.0,30.5
2023/08/09 18:40:00, 0.0,30.3
2023/08/09 18:50:00, 0.0,29.6
2023/08/09 19:00:00, 0.0,29.7
2023/08/09 19:10:00, 0.0,29.5
2023/08/09 19:20:00, 0.0,29.3
2023/08/09 19:30:00, 0.0,29.3
2023/08/09 19:40:00, 0.0,29.5
2023/08/09 19:50:00, 0.0,29.3
2023/08/09 20:00:00, 0.0,29.0
2023/08/09 20:10:00, 0.0,29.2
2023/08/09 20:20:00, 0.0,29.4
2023/08/09 20:30:00, 0.0,29.0
2023/08/09 20:40:00, 0.0,28.9
2023/08/09 20:50:00, 0.0,29.1
2023/08/09 21:00:00, 0.0,29.3
2023/08/09 21:10:00, 0.0,29.3
2023/08/09 21:20:00, 0.0,29.7
2023/08/09 21:30:00, 0.0,29.2
2023/08/09 21:40:00, 0.0,29.1
2023/08/09 21:50:00, 0.0,29.3
2023/08/09 22:00:00, 0.0,29.0
2023/08/09 22:10:00, 0.0,29.1
2023/08/09 22:20:00, 0.0,29.0
2023/08/09 22:30:00, 0.0,29.1
2023/08/09 22:40:00, 0.0,29.3
2023/08/09 22:50:00, 0.0,29.2
2023/08/09 23:00:00, 0.0,29.2
2023/08/09 23:10:00, 0.0,29.0
2023/08/09 23:20:00, 0.0,29.0
2023/08/09 23:30:00, 0.0,28.8
2023/08/09 23:40:00, 0.0,29.3
2023/08/09 23:50:00, 0.0,29.3
